CZ-6A DEB, 56673

Orbit data source: Space-Track

CZ-6A DEB, 56673 is space debris in SSO originally from a launch on Fri, 11 Nov 2022 UTC launched from the Taiyaun Space Center, China (TSC). Debris objects in space refer to the collection of defunct objects orbiting the Earth. Examples of debris include non-operational satellites, rocket bodies, and fragments generated from explosions, collisions, or faulty payload assembly.

Loading next visibility...
Identifier
56673, 2022-151AGZ
Orbit
SSO
Country
Flag of CNCN / PRC
Related business
Manufacturer
SAST
Mission
Spacecraft
Bus & Motor
Unknown
Mass
Unknown
Launch date (UTC)
2022-11-11 (3 years ago)
Launch vehicle
Unknown
Launch site
Taiyaun Space Center, China (TSC)
Object type
Payload
Rocket body
Debris
Shape & HBR
Unknown shape, 0.1 m
Radar Cross Section
Small (<0.1 m²)

Expand to show TLE details & history
Last TLE update: 2 days ago

TLE from 2 days ago
0 CZ-6A DEB
1 56673U 22151AGZ 25352.02724100  .00003991  00000-0  13778-2 0  9991
2 56673  98.7537  19.5361 0034855 127.1027 233.3352 14.36043067 69907
Epoch: 2025-12-18T00:39Z
TLE epoch observation values (Epoch: 2025-12-18T00:39:13.622Z)
Latitude
-0.00004°
Longitude
-77.1593°
Altitude
789.477 km
Speed
7.451 km/s
True Right ascension
01h 18m 08s
True Declination
0° 00' 00"
Sunlit
Object was in daylight at epoch
Visualization orbit readout
Latitude
Unknown
Longitude
Unknown
Altitude
Unknown
Speed
Unknown
Apparent Right ascension
Unknown
Apparent Declination
Unknown
Sunlit
N/A
Visualization observer readout
Local Sidereal Time
15:10:50
Azimuth
Unknown
Elevation
Unknown
Doppler factor
Unknown
Orbital elements
Apogee altitude
793.652 km
Perigee altitude
743.831 km
Semi-major axis
7,146.878 km
Eccentricity
0.00349
Inclination
98.7537°
RAAN
19.5361°
Arg. of periapsis
127.1027°
True anomaly
233.01565°
Mean anomaly
233.3352°
Eccentric anomaly
233.17534°
Mean motion
3.59227 °/min
Orbital period
100.22 mins
BSTAR
0.0013778
Loading maneuver chart data...
Computing Atmospheric mass density...
Loading historical data...
Loading historical data...
Loading historical data...
Loading historical data...
Loading historical data...
Loading historical data...
Loading historical data...

Documentation

Showing up to 5 results
|